FW5487 Weather Reports


Display with metric or nautical units.
time (UTC)temp
F
wind
direction
speed
MPH
gust
MPH
rain 1hr
in
rain 24hr
in
rain mn
in
humidity
%
barometer
mb
20260903212710 101 193 10.0 14.0 0.00 0.00 0.00 28 1000.0
20260903212204 101 186 9.0 14.0 0.00 0.00 0.00 27 1000.0
20260903211704 100 179 13.0 20.0 0.00 0.00 0.00 28 1000.0
20260903211203 100 183 9.0 16.0 0.00 0.00 0.00 28 1000.0
20260903210704 100 162 7.0 15.0 0.00 0.00 0.00 28 1000.0
20260903205704 100 103 10.0 15.0 0.00 0.00 0.00 28 1000.0
20260903205224 100 137 6.0 15.0 0.00 0.00 0.00 28 1000.0
20260903204727 100 183 10.0 18.0 0.00 0.00 0.00 29 1000.0
20260903204204 100 197 9.0 17.0 0.00 0.00 0.00 29 1000.0
20260903203704 100 174 10.0 17.0 0.00 0.00 0.00 28 1000.0
20260903202704 100 178 6.0 14.0 0.00 0.00 0.00 29 1000.0
20260903202204 99 130 7.0 15.0 0.00 0.00 0.00 29 1000.0
20260903201703 99 127 10.0 16.0 0.00 0.00 0.00 28 1000.0
20260903201203 100 188 10.0 20.0 0.00 0.00 0.00 28 1000.0
20260903200704 100 193 8.0 14.0 0.00 0.00 0.00 28 1000.0
20260903195703 100 164 9.0 15.0 0.00 0.00 0.00 29 1000.0
20260903195204 100 213 5.0 14.0 0.00 0.00 0.00 29 1000.0
20260903194704 100 169 10.0 16.0 0.00 0.00 0.00 29 1000.0
20260903194203 99 180 9.0 14.0 0.00 0.00 0.00 29 1000.0
20260903193704 99 180 12.0 17.0 0.00 0.00 0.00 28 1000.0
20260903193204 99 190 3.0 10.0 0.00 0.00 0.00 30 1000.0
20260903191703 100 208 6.0 15.0 0.00 0.00 0.00 30 1000.0
20260903190704 99 218 7.0 12.0 0.00 0.00 0.00 31 1000.0
20260903185203 98 189 3.0 9.0 0.00 0.00 0.00 31 1000.0
20260903184704 99 144 9.0 16.0 0.00 0.00 0.00 31 1000.0
20260903184203 98 213 3.0 10.0 0.00 0.00 0.00 32 1000.0
20260903183703 98 208 4.0 12.0 0.00 0.00 0.00 33 1000.0
20260903183204 97 184 5.0 14.0 0.00 0.00 0.00 32 1000.0
20260903182704 98 195 10.0 15.0 0.00 0.00 0.00 31 1000.0
20260903182204 98 179 10.0 16.0 0.00 0.00 0.00 32 1000.0
20260903181703 98 201 12.0 22.0 0.00 0.00 0.00 33 1000.0
20260903181204 98 193 7.0 14.0 0.00 0.00 0.00 33 1000.0
20260903180704 97 196 6.0 12.0 0.00 0.00 0.00 33 1000.0
20260903175704 97 168 10.0 16.0 0.00 0.00 0.00 33 1000.0
20260903175204 97 187 10.0 14.0 0.00 0.00 0.00 34 1000.0
20260903174703 97 181 11.0 16.0 0.00 0.00 0.00 34 1000.0
20260903173703 97 210 9.0 16.0 0.00 0.00 0.00 36 1000.0
20260903173203 97 200 7.0 13.0 0.00 0.00 0.00 37 1000.0
20260903172704 96 202 9.0 15.0 0.00 0.00 0.00 36 1000.0
20260903172204 96 135 10.0 13.0 0.00 0.00 0.00 36 1000.0
20260903171704 96 163 6.0 15.0 0.00 0.00 0.00 38 1000.0
20260903171204 96 145 10.0 18.0 0.00 0.00 0.00 37 1000.0
20260903170703 96 246 5.0 12.0 0.00 0.00 0.00 39 1000.0
20260903170204 95 202 8.0 15.0 0.00 0.00 0.00 39 1000.0
20260903165705 95 224 7.0 13.0 0.00 0.00 0.00 41 1000.0
20260903165203 95 180 6.0 12.0 0.00 0.00 0.00 41 1000.0
20260903164703 95 204 5.0 12.0 0.00 0.00 0.00 43 1000.0
20260903164204 94 197 5.0 12.0 0.00 0.00 0.00 44 1000.0
20260903163704 94 194 8.0 14.0 0.00 0.00 0.00 44 1000.0
20260903163204 94 217 6.0 13.0 0.00 0.00 0.00 44 1000.0
20260903162703 94 204 6.0 15.0 0.00 0.00 0.00 44 1000.0
20260903162204 93 210 8.0 14.0 0.00 0.00 0.00 43 1000.0
20260903161703 93 209 9.0 14.0 0.00 0.00 0.00 45 1000.0
20260903160704 93 194 9.0 14.0 0.00 0.00 0.00 45 1000.0
20260903160203 92 195 11.0 18.0 0.00 0.00 0.00 46 1000.0
20260903155703 92 200 9.0 14.0 0.00 0.00 0.00 48 1000.0
20260903155203 91 184 9.0 15.0 0.00 0.00 0.00 48 1000.0
20260903154704 92 183 9.0 18.0 0.00 0.00 0.00 49 1000.0
20260903154204 91 187 12.0 18.0 0.00 0.00 0.00 49 1000.0
20260903153703 91 189 9.0 14.0 0.00 0.00 0.00 50 1000.0
20260903153204 91 175 7.0 15.0 0.00 0.00 0.00 51 1000.0
20260903152204 90 135 12.0 17.0 0.00 0.00 0.00 51 1000.0
20260903151703 90 200 9.0 15.0 0.00 0.00 0.00 52 1000.0
20260903151204 90 181 8.0 13.0 0.00 0.00 0.00 53 1000.0
20260903150703 89 188 9.0 17.0 0.00 0.00 0.00 54 1000.0
20260903145704 89 172 7.0 13.0 0.00 0.00 0.00 55 1000.0
20260903145204 89 183 7.0 10.0 0.00 0.00 0.00 55 1000.0
20260903144703 89 187 7.0 15.0 0.00 0.00 0.00 56 1000.0
20260903144204 88 187 10.0 14.0 0.00 0.00 0.00 56 1000.0
20260903143704 88 175 10.0 14.0 0.00 0.00 0.00 56 1000.0
20260903142703 88 179 7.0 13.0 0.00 0.00 0.00 57 1000.0
20260903142203 88 135 6.0 9.0 0.00 0.00 0.00 58 1000.0
20260903141703 87 179 6.0 10.0 0.00 0.00 0.00 58 1000.0
20260903140203 86 193 8.0 14.0 0.00 0.00 0.00 61 1000.0
20260903135703 86 176 6.0 12.0 0.00 0.00 0.00 61 1000.0
20260903135204 85 180 6.0 10.0 0.00 0.00 0.00 62 1000.0
20260903134704 85 183 9.0 13.0 0.00 0.00 0.00 62 1000.0
20260903134203 85 193 6.0 12.0 0.00 0.00 0.00 63 1000.0
20260903133704 84 186 9.0 14.0 0.00 0.00 0.00 63 1000.0
20260903133204 85 195 9.0 13.0 0.00 0.00 0.00 63 1000.0
20260903132704 84 202 8.0 14.0 0.00 0.00 0.00 64 1000.0
20260903132203 84 204 6.0 12.0 0.00 0.00 0.00 64 1000.0
20260903131203 84 191 8.0 10.0 0.00 0.00 0.00 64 1000.0
20260903130703 84 199 7.0 10.0 0.00 0.00 0.00 65 1000.0
20260903130204 84 189 7.0 9.0 0.00 0.00 0.00 65 1000.0
20260903125204 83 196 6.0 9.0 0.00 0.00 0.00 66 1000.0
20260903124704 82 202 4.0 7.0 0.00 0.00 0.00 68 1000.0
20260903124203 82 191 6.0 9.0 0.00 0.00 0.00 69 1000.0
20260903123703 81 213 2.0 3.0 0.00 0.00 0.00 72 1000.0
20260903123204 81 165 0.0 2.0 0.00 0.00 0.00 72 1000.0
20260903122704 81 131 2.0 2.0 0.00 0.00 0.00 72 1000.0
20260903122203 81 190 1.0 1.0 0.00 0.00 0.00 73 1000.0
20260903121204 80 174 2.0 5.0 0.00 0.00 0.00 75 1000.0
20260903120703 80 111 2.0 3.0 0.00 0.00 0.00 76 1000.0
20260903120204 80 108 2.0 3.0 0.00 0.00 0.00 75 1000.0
20260903115704 80 126 1.0 2.0 0.00 0.00 0.00 75 1000.0
20260903115204 80 131 2.0 3.0 0.00 0.00 0.00 75 1000.0
20260903114703 80 131 2.0 3.0 0.00 0.00 0.00 75 1000.0
20260903114204 80 143 3.0 3.0 0.00 0.00 0.00 75 1000.0
20260903113704 80 139 3.0 5.0 0.00 0.00 0.00 76 1000.0
20260903113204 79 139 2.0 3.0 0.00 0.00 0.00 78 1000.0
20260903112703 79 137 2.0 3.0 0.00 0.00 0.00 79 1000.0
20260903112203 79 153 3.0 5.0 0.00 0.00 0.00 79 1000.0
20260903111703 79 155 4.0 6.0 0.00 0.00 0.00 80 1000.0
20260903111204 78 130 5.0 6.0 0.00 0.00 0.00 80 1000.0
20260903110704 79 126 4.0 6.0 0.00 0.00 0.00 79 1000.0
20260903110204 79 129 4.0 6.0 0.00 0.00 0.00 77 1000.0
20260903105203 80 140 3.0 5.0 0.00 0.00 0.00 73 1000.0
20260903104204 80 139 3.0 3.0 0.00 0.00 0.00 72 1000.0
20260903103704 80 145 3.0 3.0 0.00 0.00 0.00 71 1000.0
20260903103204 80 143 3.0 3.0 0.00 0.00 0.00 71 1000.0
20260903102703 81 149 3.0 5.0 0.00 0.00 0.00 70 1000.0
20260903101704 81 146 2.0 3.0 0.00 0.00 0.00 70 1000.0
20260903100703 81 145 3.0 5.0 0.00 0.00 0.00 70 1000.0
20260903100203 81 152 3.0 6.0 0.00 0.00 0.00 70 1000.0
20260903095204 80 132 3.0 5.0 0.00 0.00 0.00 70 1000.0
20260903094704 81 129 4.0 6.0 0.00 0.00 0.00 69 1000.0
20260903094203 81 126 3.0 5.0 0.00 0.00 0.00 68 1000.0
20260903093703 81 124 3.0 3.0 0.00 0.00 0.00 68 1000.0
20260903093204 81 129 2.0 5.0 0.00 0.00 0.00 68 1000.0
20260903092704 81 122 2.0 5.0 0.00 0.00 0.00 68 1000.0
20260903092203 81 122 2.0 5.0 0.00 0.00 0.00 68 1000.0
20260903091703 81 85 2.0 5.0 0.00 0.00 0.00 69 1000.0
20260903091204 81 104 2.0 3.0 0.00 0.00 0.00 69 1000.0
20260903090704 81 110 3.0 5.0 0.00 0.00 0.00 69 1000.0
20260903085704 82 46 1.0 2.0 0.00 0.00 0.00 67 1000.0
20260903084703 82 119 3.0 7.0 0.00 0.00 0.00 65 1000.0
20260903084204 82 131 2.0 5.0 0.00 0.00 0.00 65 1000.0
20260903083703 82 139 3.0 6.0 0.00 0.00 0.00 64 1000.0
20260903083203 82 175 4.0 8.0 0.00 0.00 0.00 64 1000.0
20260903082704 82 150 2.0 5.0 0.00 0.00 0.00 64 1000.0
20260903082203 82 186 2.0 5.0 0.00 0.00 0.00 65 1000.0
20260903081704 82 164 2.0 5.0 0.00 0.00 0.00 65 1000.0
20260903081204 81 169 2.0 5.0 0.00 0.00 0.00 65 1000.0
20260903080703 81 147 3.0 5.0 0.00 0.00 0.00 66 1000.0
20260903075704 81 134 3.0 6.0 0.00 0.00 0.00 67 1000.0
20260903074704 81 140 4.0 6.0 0.00 0.00 0.00 65 1000.0
20260903074203 81 138 5.0 6.0 0.00 0.00 0.00 64 1000.0
20260903073704 82 142 5.0 6.0 0.00 0.00 0.00 62 1000.0
20260903073204 82 139 3.0 6.0 0.00 0.00 0.00 62 1000.0
20260903072704 82 174 3.0 6.0 0.00 0.00 0.00 61 1000.0
20260903072203 82 178 3.0 6.0 0.00 0.00 0.00 61 1000.0
20260903071704 82 164 3.0 6.0 0.00 0.00 0.00 61 1000.0
20260903071203 82 181 3.0 6.0 0.00 0.00 0.00 61 1000.0
20260903070204 82 139 5.0 7.0 0.00 0.00 0.00 61 1000.0
20260903065704 82 137 5.0 7.0 0.00 0.00 0.00 61 1000.0
20260903065204 82 140 5.0 8.0 0.00 0.00 0.00 60 1000.0
20260903064703 82 143 5.0 8.0 0.00 0.00 0.00 60 1000.0
20260903064203 82 139 5.0 8.0 0.00 0.00 0.00 60 1000.0
20260903063704 82 145 5.0 8.0 0.00 0.00 0.00 60 1000.0
20260903063204 83 141 5.0 6.0 0.00 0.00 0.00 60 1000.0
20260903062703 82 135 5.0 6.0 0.00 0.00 0.00 60 1000.0
20260903061704 83 128 5.0 6.0 0.00 0.00 0.00 59 1000.0
20260903061204 83 117 5.0 6.0 0.00 0.00 0.00 59 1000.0
20260903060204 84 129 3.0 5.0 0.00 0.00 0.00 57 1000.0
20260903055704 84 139 3.0 5.0 0.00 0.00 0.00 56 1000.0
20260903055204 85 101 5.0 7.0 0.00 0.00 0.00 56 1000.0
20260903054703 85 133 4.0 6.0 0.00 0.00 0.00 53 1000.0
20260903053704 87 183 9.0 13.0 0.00 0.00 0.00 51 1000.0
20260903053204 87 181 7.0 13.0 0.00 0.00 0.00 51 1000.0
20260903052704 87 178 7.0 12.0 0.00 0.00 0.00 51 1000.0
20260903052204 86 180 6.0 8.0 0.00 0.00 0.00 51 1000.0
20260903051703 87 173 6.0 12.0 0.00 0.00 0.00 50 1000.0
20260903051203 87 180 6.0 9.0 0.00 0.00 0.00 50 1000.0
20260903050203 87 161 5.0 9.0 0.00 0.00 0.00 51 1000.0
20260903045703 86 172 5.0 8.0 0.00 0.00 0.00 52 1000.0
20260903045204 86 145 5.0 7.0 0.00 0.00 0.00 51 1000.0
20260903044704 87 141 4.0 9.0 0.00 0.00 0.00 48 1000.0
20260903044204 88 167 5.0 8.0 0.00 0.00 0.00 47 1000.0
20260903043703 88 176 6.0 12.0 0.00 0.00 0.00 47 1000.0
20260903043203 88 173 6.0 8.0 0.00 0.00 0.00 47 1000.0
20260903042704 88 164 6.0 9.0 0.00 0.00 0.00 47 1000.0
20260903042204 88 160 6.0 9.0 0.00 0.00 0.00 46 1000.0
20260903041204 88 169 7.0 9.0 0.00 0.00 0.00 46 1000.0
20260903040203 88 171 5.0 9.0 0.00 0.00 0.00 47 1000.0
20260903035204 87 175 6.0 8.0 0.00 0.00 0.00 48 1000.0
20260903034704 87 159 6.0 8.0 0.00 0.00 0.00 49 1000.0
20260903033704 86 169 5.0 7.0 0.00 0.00 0.00 53 1000.0
20260903033204 86 168 5.0 7.0 0.00 0.00 0.00 56 1000.0
20260903032703 85 150 4.0 6.0 0.00 0.00 0.00 59 1000.0
20260903032203 85 143 3.0 5.0 0.00 0.00 0.00 62 1000.0
20260903031204 85 143 3.0 6.0 0.00 0.00 0.00 62 1000.0
20260903030204 86 126 5.0 6.0 0.00 0.00 0.00 63 1000.0
20260903025704 86 133 5.0 6.0 0.00 0.00 0.00 63 1000.0
20260903025203 87 127 5.0 6.0 0.00 0.00 0.00 61 1000.0
20260903024703 87 133 4.0 5.0 0.00 0.00 0.00 61 1000.0
20260903024204 87 134 3.0 5.0 0.00 0.00 0.00 60 1000.0
20260903023704 88 127 3.0 5.0 0.00 0.00 0.00 60 1000.0
20260903023204 88 139 3.0 5.0 0.00 0.00 0.00 59 1000.0
20260903022703 88 129 3.0 6.0 0.00 0.00 0.00 58 1000.0
20260903022203 89 135 4.0 5.0 0.00 0.00 0.00 56 1000.0
20260903021203 90 15 1.0 3.0 0.00 0.00 0.00 53 1000.0
20260903020703 91 55 3.0 6.0 0.00 0.00 0.00 51 1000.0
20260903020203 91 120 2.0 6.0 0.00 0.00 0.00 51 1000.0
20260903015703 91 129 2.0 3.0 0.00 0.00 0.00 50 1000.0
20260903015203 91 94 1.0 3.0 0.00 0.00 0.00 50 1000.0
20260903013704 92 75 1.0 5.0 0.00 0.00 0.00 49 1000.0
20260903013204 92 114 3.0 5.0 0.00 0.00 0.00 49 1000.0
20260903012703 92 98 1.0 3.0 0.00 0.00 0.00 49 1000.0
20260903012204 92 120 1.0 3.0 0.00 0.00 0.00 48 1000.0
20260903010704 93 81 2.0 7.0 0.00 0.00 0.00 47 1000.0
20260903010203 93 59 3.0 6.0 0.00 0.00 0.00 46 1000.0
20260903005203 94 90 1.0 3.0 0.00 0.00 0.00 44 1000.0
20260903004703 94 74 2.0 5.0 0.00 0.00 0.00 42 1000.0
20260903004204 95 55 2.0 5.0 0.00 0.00 0.00 42 1000.0
20260903003704 95 92 0.0 3.0 0.00 0.00 0.00 41 1000.0
20260903003204 95 26 3.0 5.0 0.00 0.00 0.00 39 1000.0
20260903002704 96 44 3.0 5.0 0.00 0.00 0.00 39 1000.0
20260903002204 96 125 4.0 6.0 0.00 0.00 0.00 38 1000.0
20260903001704 96 88 5.0 6.0 0.00 0.00 0.00 38 1000.0
20260903001203 96 49 3.0 6.0 0.00 0.00 0.00 38 1000.0
20260903000704 96 37 3.0 6.0 0.00 0.00 0.00 38 1000.0
20260903000204 96 130 3.0 5.0 0.00 0.00 0.00 38 1000.0
20260902234704 97 114 3.0 5.0 0.00 0.00 0.00 37 1000.0
20260902234203 98 123 3.0 7.0 0.00 0.00 0.00 36 1000.0
20260902233703 98 122 5.0 6.0 0.00 0.00 0.00 35 1000.0
20260902233204 98 136 3.0 6.0 0.00 0.00 0.00 35 1000.0
20260902232704 98 135 3.0 6.0 0.00 0.00 0.00 35 1000.0
20260902232204 98 150 3.0 5.0 0.00 0.00 0.00 35 1000.0
20260902230703 98 132 5.0 6.0 0.00 0.00 0.00 35 1000.0
20260902230206 98 138 5.0 8.0 0.00 0.00 0.00 34 1000.0
20260902225705 98 139 7.0 8.0 0.00 0.00 0.00 34 1000.0
20260902225203 98 155 6.0 10.0 0.00 0.00 0.00 34 1000.0
20260902224704 98 127 6.0 9.0 0.00 0.00 0.00 34 1000.0
20260902224204 99 154 6.0 10.0 0.00 0.00 0.00 34 1000.0
20260902223704 99 141 6.0 10.0 0.00 0.00 0.00 32 1000.0
20260902223203 99 124 9.0 10.0 0.00 0.00 0.00 32 1000.0
20260902222704 100 136 7.0 8.0 0.00 0.00 0.00 31 1000.0
20260902221703 101 177 2.0 7.0 0.00 0.00 0.00 30 1000.0
20260902221204 101 120 1.0 6.0 0.00 0.00 0.00 29 1000.0
20260902220704 101 223 3.0 5.0 0.00 0.00 0.00 29 1000.0
20260902220204 101 207 5.0 9.0 0.00 0.00 0.00 29 1000.0
20260902215703 101 211 5.0 8.0 0.00 0.00 0.00 30 1000.0
20260902214704 101 197 5.0 8.0 0.00 0.00 0.00 30 1000.0
20260902214203 100 219 5.0 9.0 0.00 0.00 0.00 30 1000.0
20260902213703 100 173 6.0 12.0 0.00 0.00 0.00 31 1000.0